This is the latest recevied weather packets stored in our database for station/object AF9W-5. If no packets are shown the sender has not sent any weather packets the latest 10 day(s).
| Time | Temp. | Humidity | Pressure | Rain* | Wind** | Luminosity | Snow |
|---|---|---|---|---|---|---|---|
| 1777361292 | 13.89° C | 38% | 1015 hPa | 0 mm | - | 0 W/m² | - |
| 1777360989 | 13.89° C | 38% | 1015 hPa | 0 mm | - | 0 W/m² | - |
| 1777360687 | 13.33° C | 38% | 1015.3 hPa | 0 mm | - | 0 W/m² | - |
| 1777360383 | 13.89° C | 37% | 1015.3 hPa | 0 mm | - | 0 W/m² | - |
| 1777360081 | 13.89° C | 38% | 1015.2 hPa | 0 mm | - | 0 W/m² | - |
| 1777359777 | 13.89° C | 38% | 1015 hPa | 0 mm | - | 0 W/m² | - |
| 1777359474 | 14.44° C | 38% | 1015.1 hPa | 0 mm | - | 0 W/m² | - |
| 1777359170 | 14.44° C | 35% | 1015 hPa | 0 mm | - | 0 W/m² | - |
| 1777358868 | 15° C | 34% | 1015.2 hPa | 0 mm | - | 0 W/m² | - |
| 1777358565 | 15° C | 34% | 1015.4 hPa | 0 mm | - | 0 W/m² | - |
| 1777358264 | 14.44° C | 35% | 1015.1 hPa | 0 mm | - | 0 W/m² | - |
| 1777357961 | 15° C | 34% | 1014.8 hPa | 0 mm | - | 0 W/m² | - |
| 1777357658 | 15.56° C | 33% | 1014.8 hPa | 0 mm | - | 0 W/m² | - |
| 1777357355 | 15.56° C | 32% | 1014.6 hPa | 0 mm | - | 0 W/m² | - |
| 1777357052 | 15.56° C | 32% | 1014.7 hPa | 0 mm | - | 0 W/m² | - |
| 1777356749 | 15.56° C | 33% | 1015 hPa | 0 mm | - | 0 W/m² | - |
| 1777356447 | 15.56° C | 32% | 1015 hPa | 0 mm | - | 0 W/m² | - |
| 1777356143 | 15.56° C | 33% | 1015 hPa | 0 mm | - | 0 W/m² | - |
| 1777355840 | 15.56° C | 32% | 1014.8 hPa | 0 mm | - | 0 W/m² | - |
| 1777355536 | 16.11° C | 32% | 1015 hPa | 0 mm | - | 0 W/m² | - |
| 1777355233 | 16.11° C | 31% | 1014.7 hPa | 0 mm | - | 0 W/m² | - |
| 1777354930 | 16.67° C | 31% | 1014.6 hPa | 0 mm | - | 0 W/m² | - |
| 1777354625 | 16.11° C | 31% | 1014.5 hPa | 0 mm | - | 0 W/m² | - |
| 1777354321 | 16.67° C | 30% | 1014.6 hPa | 0 mm | - | 0 W/m² | - |
| 1777354019 | 16.67° C | 30% | 1014.5 hPa | 0 mm | - | 0 W/m² | - |
* Rain latest hour (hover to see other rain measurements)
** Current wind speed in m/s (hover to see current wind gust speed)